Wind_Speed
18 18 15 12 11 12 14 16 19 20 23 26 28 30 30 27 22 19 21 21 21 20 19 20 22 22 24 27 29 29 26 26 26 23 19 17 18 19 19 18 18 19 20 21
12 13 11 14 14 12 13 13 13 12 12 14 17 20 22 24 24 24 25 25 25 24 23 23 23 23 25 26 26 25 23 23 24 23 21 20 21 21 22 21 20 21 21 22
6 6 10 12 11 10 10 9 6 4 4 4 7 11 15 18 21 23 24 24 22 23 23 23 23 23 23 22 21 21 21 21 21 22 22 22 23 23 23 23 24 24 24 25
3 5 6 7 6 7 7 4 2 2 2 2 3 5 6 9 11 14 15 15 15 16 17 18 18 17 16 16 17 18 19 20 20 20 21 22 22 22 23 24 24 24 24 25
4 8 3 7 8 9 9 5 2 1 2 2 6 10 8 6 5 5 4 5 6 7 8 10 10 11 13 15 17 19 20 21 21 21 21 22 23 23 24 24 24 23 24 24
5 9 6 4 6 7 8 7 4 4 6 6 6 7 7 7 7 6 5 3 1 2 4 7 9 12 15 17 19 20 22 22 22 22 23 23 23 22 21 20 20 20 21 21
5 8 6 3 3 5 7 8 7 4 5 7 6 6 5 5 6 6 5 3 3 5 7 10 13 15 16 17 18 20 21 22 22 22 22 21 19 18 17 16 17 18 19 21
5 6 5 4 2 3 5 7 6 3 5 7 8 8 6 4 3 3 3 4 6 8 11 13 13 14 15 16 18 20 21 21 21 20 20 18 17 16 15 15 17 19 21 24
3 4 3 3 2 1 4 5 4 2 5 8 9 8 6 4 4 4 4 6 8 10 11 12 13 13 15 17 18 20 20 20 20 19 19 17 17 16 15 16 19 22 25 28
6 4 2 0 1 2 3 5 4 1 5 8 8 8 6 5 4 5 6 8 9 10 10 11 12 13 15 16 17 18 20 21 20 18 17 15 14 14 14 16 19 22 24 26
9 5 3 3 4 3 3 3 1 2 5 7 7 7 6 5 6 7 9 10 11 11 10 11 12 13 15 16 18 19 21 22 21 18 15 13 12 12 14 17 19 20 22 22
10 5 3 4 4 2 2 2 1 2 4 5 6 6 7 6 7 9 11 11 11 10 10 11 13 14 16 18 20 21 22 22 20 17 14 12 11 13 14 16 17 18 19 19
12 5 3 4 4 2 2 3 3 3 2 2 3 5 6 7 8 10 11 11 9 10 11 12 13 15 17 19 20 21 21 19 16 14 11 10 10 11 13 14 15 15 16 15
17 7 4 4 5 5 6 6 7 7 6 4 2 4 6 7 8 10 10 9 10 11 12 12 13 15 17 19 20 20 18 15 12 11 9 8 8 10 12 13 14 14 13 13
25 12 6 6 8 9 8 8 7 7 7 6 3 3 5 7 8 9 9 9 11 13 12 13 14 15 17 19 18 17 15 13 12 11 9 8 7 9 12 13 14 13 12 13
32 21 10 7 9 9 8 7 6 6 8 8 6 3 4 6 8 9 8 9 12 13 13 13 14 15 17 18 17 16 15 14 13 12 10 8 8 10 12 14 14 14 14 14
34 29 19 9 7 9 8 6 5 6 10 11 9 5 4 5 7 8 8 9 12 13 13 13 14 15 16 17 16 15 15 15 14 13 12 11 11 13 14 15 16 16 16 15
34 32 26 17 8 8 9 8 7 8 11 14 12 8 6 5 7 8 8 8 10 12 12 12 13 14 16 17 17 16 14 14 14 14 14 14 14 15 16 17 18 17 17 17
31 32 30 23 15 8 10 10 9 9 10 13 13 10 8 6 7 8 7 7 9 10 11 11 12 13 15 17 17 16 14 13 13 14 14 13 14 15 16 17 18 18 19 19
28 30 30 27 22 13 8 10 11 10 11 13 14 12 10 9 9 8 7 6 7 9 10 10 10 11 13 15 15 14 13 12 12 12 12 12 12 13 14 15 17 17 19 20
24 27 29 28 25 20 13 10 12 13 12 14 15 15 13 12 11 10 8 6 6 7 8 9 9 9 11 12 12 11 11 11 11 11 10 10 11 12 13 14 15 15 17 18
20 23 26 28 27 24 19 14 13 14 14 16 17 17 15 14 13 12 10 8 7 5 6 7 8 8 8 9 9 8 8 9 10 10 10 10 11 11 12 13 13 14 15 16
18 19 22 26 27 26 23 19 14 14 16 18 20 20 19 18 17 15 13 11 9 7 5 5 6 6 6 7 7 6 6 7 9 9 10 10 11 11 11 11 11 12 12 12
19 19 19 22 25 27 26 24 19 15 18 20 22 22 22 22 21 19 16 15 13 10 7 5 5 5 4 4 4 3 3 6 8 9 9 10 11 11 11 11 10 9 10 10
20 20 20 21 22 26 27 26 23 19 16 21 23 24 24 24 24 22 20 18 16 13 10 7 6 5 4 3 3 2 1 3 5 5 6 7 8 9 10 11 11 10 10 10
22 22 22 22 22 23 26 28 26 23 19 19 24 25 26 27 27 26 24 22 20 17 13 10 8 6 6 5 4 4 3 2 1 0 3 5 7 7 8 9 10 10 9 9
25 24 23 24 23 23 25 27 28 26 23 19 22 26 27 29 30 29 28 26 24 21 18 14 11 9 8 8 8 8 7 6 5 5 6 8 9 9 8 7 7 8 8 9
Wind_Direction
287 265 267 282 272 257 251 253 254 252 253 255 253 257 262 267 266 262 262 264 268 273 278 283 286 286 287 292 298 301 303 306 309 306 296 284 283 293 295 290 283 275 271 269
291 255 248 251 254 259 257 257 255 263 273 265 259 262 263 259 257 255 258 262 266 267 269 272 279 286 290 292 294 298 302 305 307 304 296 287 285 289 289 287 284 279 274 271
320 220 209 233 239 251 261 262 266 283 294 282 259 259 257 254 252 251 255 260 259 257 259 265 278 289 292 291 293 296 300 302 303 302 298 292 288 288 286 286 286 283 277 273
42 142 201 219 228 248 251 234 245 293 299 261 199 155 200 225 231 237 245 249 250 254 261 272 285 293 294 294 296 298 301 304 306 303 299 295 291 288 286 285 284 282 278 274
145 160 226 226 230 231 223 206 196 142 80 38 99 87 90 121 156 187 214 236 255 268 278 289 297 302 302 303 303 302 303 304 304 302 297 293 291 290 287 284 280 276 274 275
195 192 215 215 210 216 203 177 156 117 78 83 89 72 81 94 106 110 109 96 35 332 315 311 310 311 312 313 310 307 305 304 304 303 300 298 295 292 289 284 279 275 274 274
195 198 209 215 173 190 193 177 164 131 91 77 60 39 52 78 97 96 80 46 355 327 318 315 312 312 313 314 312 309 307 307 307 306 305 302 297 293 288 284 280 278 276 276
172 190 190 195 176 179 186 173 164 130 90 66 40 26 26 45 64 53 23 347 327 318 314 311 310 311 314 319 320 318 317 315 312 309 307 303 299 294 288 285 284 284 284 283
116 150 162 189 205 229 202 197 198 152 69 50 34 25 22 27 31 15 352 336 325 317 311 311 313 316 320 323 325 326 326 323 316 311 309 306 303 300 296 294 294 294 292 289
76 99 117 181 296 309 216 211 218 128 66 47 34 27 16 11 6 348 338 331 322 314 310 313 317 318 320 323 326 328 331 332 328 320 315 313 311 309 306 306 306 303 302 296
63 72 48 9 341 309 220 204 190 105 70 55 39 20 358 346 340 333 329 325 319 314 314 317 318 318 320 322 323 324 328 332 331 325 320 317 319 319 317 316 317 317 316 310
48 55 34 5 355 307 219 206 159 85 62 48 32 6 345 334 333 332 331 329 325 322 322 323 324 327 329 327 324 323 324 326 326 323 317 312 316 322 325 327 330 333 334 332
25 17 346 326 324 316 305 286 295 297 301 357 9 351 338 332 335 337 337 336 335 333 332 333 336 339 339 336 332 327 325 326 327 326 322 317 321 329 334 341 346 348 350 357
14 0 317 283 281 293 314 304 289 288 249 234 305 334 334 336 339 340 342 344 346 345 341 341 344 347 347 343 338 333 333 337 340 340 336 331 332 339 347 357 4 7 9 15
9 358 319 276 267 276 291 301 295 277 237 215 242 311 328 335 339 341 343 347 350 349 346 345 347 351 352 350 348 347 350 353 355 356 355 354 352 355 2 10 17 24 29 35
6 0 337 286 259 258 275 288 277 250 221 218 233 274 313 329 335 337 341 348 352 352 349 349 352 355 358 358 358 360 4 9 12 15 18 21 18 16 22 28 33 40 45 48
3 1 353 320 269 248 250 254 234 225 225 230 236 250 281 310 324 329 336 346 351 352 354 356 359 3 7 9 10 13 17 23 28 31 35 39 39 40 42 41 41 42 45 47
1 359 356 348 303 256 242 240 236 238 235 232 233 238 252 281 306 316 328 342 351 356 360 4 7 10 14 16 18 22 27 31 35 38 43 47 49 47 43 41 41 42 44 45
358 358 356 353 345 298 250 239 239 244 236 227 224 227 235 256 283 298 315 334 350 359 3 6 9 12 14 16 19 23 28 32 35 38 41 43 44 44 43 43 46 50 52 53
356 356 356 354 353 343 291 251 243 243 237 225 223 226 228 239 261 278 295 317 342 359 2 2 5 8 11 14 17 22 29 35 38 38 38 39 40 42 44 48 52 55 58 60
350 352 353 353 353 350 332 285 258 248 238 228 225 227 226 231 248 264 274 291 317 342 354 357 358 2 8 11 14 21 31 39 43 42 39 39 40 42 46 50 54 57 59 61
340 345 349 350 349 348 342 316 279 254 238 227 222 224 227 229 239 252 258 266 282 306 335 346 350 355 1 6 9 16 29 38 42 42 42 43 44 45 48 52 54 55 56 57
325 333 340 344 345 343 341 332 305 267 242 229 225 227 230 231 234 242 247 252 260 271 296 324 336 341 348 356 1 8 24 38 44 46 44 42 43 44 45 47 48 49 50 50
309 314 323 332 338 339 336 334 326 293 255 237 231 230 232 231 230 234 239 240 245 250 260 284 308 317 325 338 345 353 23 46 52 51 46 42 42 43 41 39 37 37 36 34
294 299 305 314 324 331 333 332 329 318 278 249 239 234 233 231 228 229 233 233 234 237 243 254 271 282 287 291 292 293 29 72 72 63 48 33 28 29 32 32 29 28 29 29
280 285 291 297 306 317 325 328 328 324 307 268 248 239 235 230 226 227 229 229 228 229 234 240 248 255 256 252 243 232 221 200 187 1 359 352 349 353 3 11 15 17 20 23
270 273 278 285 291 300 310 320 323 322 316 292 259 244 238 230 224 224 226 226 224 224 228 232 237 242 243 241 234 227 227 232 247 276 305 318 323 327 334 343 347 351 357 2
Height
5740 5740 5742 5744 5747 5750 5753 5755 5757 5759 5760 5760 5761 5763 5766 5768 5771 5774 5776 5777 5778 5780 5781 5781 5781 5780 5780 5779 5777 5775 5773 5770 5767 5765 5764 5763 5763 5762 5762 5762 5761 5761 5760 5759
5733 5734 5738 5740 5743 5746 5749 5752 5754 5755 5756 5756 5757 5759 5760 5762 5765 5768 5770 5771 5772 5773 5774 5775 5775 5775 5775 5773 5771 5769 5767 5765 5763 5761 5760 5759 5758 5757 5757 5756 5756 5755 5754 5753
5729 5730 5734 5737 5740 5743 5747 5749 5751 5751 5753 5753 5754 5754 5755 5756 5758 5760 5763 5764 5766 5767 5768 5769 5770 5770 5768 5767 5766 5764 5763 5761 5759 5757 5755 5753 5753 5752 5751 5750 5749 5748 5747 5746
5729 5732 5735 5739 5740 5743 5745 5747 5748 5749 5750 5750 5749 5747 5748 5751 5753 5756 5758 5760 5762 5763 5764 5765 5765 5764 5764 5763 5762 5760 5758 5756 5754 5753 5751 5749 5748 5746 5744 5743 5741 5740 5739 5739
5729 5730 5733 5736 5738 5741 5744 5746 5747 5748 5749 5749 5747 5747 5749 5750 5753 5755 5757 5758 5759 5760 5761 5761 5762 5762 5761 5759 5758 5756 5754 5752 5750 5748 5746 5744 5741 5739 5737 5735 5734 5733 5732 5731
5729 5730 5732 5735 5738 5741 5745 5747 5748 5749 5750 5751 5751 5752 5753 5753 5753 5754 5756 5757 5758 5758 5759 5759 5759 5758 5756 5755 5753 5751 5749 5747 5745 5742 5739 5737 5734 5732 5730 5728 5727 5726 5725 5724
5729 5732 5734 5737 5739 5743 5746 5749 5749 5751 5752 5753 5754 5755 5755 5755 5755 5755 5756 5757 5757 5758 5757 5756 5755 5754 5752 5751 5749 5747 5745 5742 5739 5736 5733 5730 5728 5726 5724 5722 5721 5720 5719 5718
5731 5734 5739 5739 5742 5745 5747 5748 5750 5752 5754 5755 5756 5756 5756 5756 5756 5756 5756 5756 5756 5756 5755 5753 5752 5751 5749 5747 5745 5743 5740 5737 5734 5731 5728 5725 5723 5721 5719 5717 5715 5714 5712 5710
5735 5739 5740 5742 5745 5747 5748 5750 5752 5754 5756 5756 5757 5757 5758 5758 5757 5757 5757 5756 5755 5754 5753 5751 5749 5748 5746 5744 5742 5739 5736 5733 5730 5727 5724 5721 5718 5716 5714 5712 5709 5707 5704 5701
5740 5742 5743 5745 5747 5748 5750 5752 5754 5756 5757 5758 5758 5758 5759 5759 5758 5758 5757 5755 5754 5752 5751 5749 5747 5745 5744 5742 5739 5737 5733 5730 5726 5723 5720 5717 5714 5712 5710 5707 5704 5700 5696 5692
5745 5747 5747 5748 5749 5750 5751 5754 5756 5757 5758 5759 5759 5760 5760 5760 5759 5758 5757 5755 5753 5751 5749 5747 5745 5744 5741 5739 5736 5734 5730 5727 5723 5720 5717 5714 5712 5709 5706 5703 5699 5695 5689 5683
5750 5751 5751 5751 5751 5752 5753 5756 5757 5759 5759 5760 5760 5761 5761 5761 5760 5759 5757 5754 5752 5750 5748 5745 5743 5741 5739 5736 5733 5730 5727 5724 5721 5717 5715 5712 5710 5707 5703 5700 5695 5691 5685 5679
5753 5753 5753 5753 5753 5754 5755 5757 5759 5760 5760 5761 5761 5762 5762 5761 5760 5759 5757 5754 5752 5749 5747 5744 5742 5739 5736 5733 5730 5727 5724 5721 5717 5715 5712 5710 5707 5705 5701 5698 5694 5689 5684 5678
5755 5754 5753 5754 5754 5755 5756 5757 5758 5759 5759 5760 5761 5761 5761 5761 5760 5759 5756 5754 5752 5750 5747 5744 5741 5738 5735 5732 5729 5725 5722 5718 5715 5713 5710 5708 5706 5703 5700 5696 5693 5689 5685 5680
5757 5754 5753 5752 5752 5753 5754 5755 5756 5757 5758 5759 5760 5761 5760 5760 5760 5758 5757 5755 5752 5750 5747 5744 5741 5738 5734 5731 5728 5725 5721 5718 5715 5712 5710 5707 5705 5703 5700 5696 5693 5690 5687 5683
5759 5755 5752 5750 5749 5750 5752 5753 5754 5755 5757 5758 5759 5760 5760 5759 5759 5758 5757 5755 5753 5750 5747 5744 5741 5738 5735 5731 5728 5725 5722 5718 5715 5713 5710 5708 5706 5704 5701 5698 5695 5692 5689 5687
5760 5755 5751 5748 5747 5747 5748 5750 5752 5753 5755 5757 5758 5758 5758 5758 5758 5758 5757 5755 5752 5750 5747 5745 5742 5739 5736 5733 5730 5726 5723 5720 5718 5715 5713 5711 5709 5707 5704 5701 5699 5696 5693 5691
5760 5755 5750 5746 5744 5744 5745 5746 5748 5750 5752 5754 5756 5757 5757 5757 5757 5757 5756 5755 5752 5750 5748 5746 5743 5740 5738 5735 5732 5729 5726 5724 5722 5720 5717 5715 5713 5711 5708 5706 5703 5700 5697 5695
5760 5755 5749 5745 5742 5741 5742 5743 5745 5747 5748 5750 5753 5754 5755 5756 5756 5756 5756 5754 5752 5750 5748 5746 5744 5742 5740 5737 5735 5732 5730 5728 5726 5724 5722 5720 5718 5716 5713 5710 5708 5705 5702 5699
5760 5755 5750 5745 5741 5739 5739 5740 5742 5743 5745 5747 5750 5751 5753 5754 5754 5755 5755 5754 5752 5750 5749 5747 5745 5744 5742 5740 5738 5735 5733 5731 5729 5728 5726 5724 5722 5720 5717 5715 5712 5710 5707 5705
5759 5755 5751 5745 5741 5738 5736 5736 5737 5739 5741 5743 5746 5748 5750 5751 5752 5753 5754 5753 5752 5750 5749 5748 5747 5745 5743 5742 5740 5739 5737 5735 5733 5731 5730 5728 5725 5723 5721 5719 5717 5715 5712 5710
5757 5755 5751 5746 5742 5738 5734 5732 5732 5733 5736 5738 5741 5744 5746 5747 5749 5751 5752 5752 5751 5750 5749 5748 5747 5746 5745 5744 5743 5741 5740 5738 5736 5734 5733 5731 5728 5727 5725 5723 5721 5719 5717 5715
5754 5752 5750 5746 5742 5737 5734 5731 5729 5729 5730 5732 5735 5738 5741 5743 5745 5747 5749 5750 5750 5749 5748 5748 5747 5746 5746 5745 5744 5743 5742 5741 5739 5737 5736 5734 5732 5730 5729 5727 5725 5723 5721 5719
5750 5748 5746 5744 5740 5736 5732 5729 5727 5725 5725 5727 5729 5732 5734 5737 5740 5743 5745 5747 5747 5748 5747 5747 5747 5746 5746 5746 5746 5745 5745 5743 5742 5741 5739 5737 5735 5734 5732 5730 5729 5727 5725 5722
5745 5743 5742 5740 5738 5735 5731 5727 5723 5721 5721 5722 5723 5725 5727 5731 5734 5737 5740 5742 5744 5745 5745 5745 5746 5746 5745 5746 5746 5746 5746 5745 5744 5743 5742 5740 5739 5737 5735 5733 5731 5729 5727 5725
5737 5737 5736 5735 5733 5731 5728 5724 5720 5718 5716 5716 5717 5719 5721 5723 5727 5731 5734 5737 5739 5741 5742 5743 5744 5744 5745 5745 5746 5746 5747 5747 5746 5744 5743 5742 5741 5739 5737 5735 5734 5732 5730 5728
5729 5729 5729 5728 5727 5726 5723 5720 5717 5713 5710 5708 5709 5711 5713 5716 5719 5723 5727 5731 5734 5736 5738 5740 5741 5742 5743 5744 5744 5745 5746 5746 5746 5745 5743 5742 5741 5739 5738 5736 5735 5733 5732 5730